User: anonymous   Login
Location: Unspecified
(0.0000°N, 0.0000°E)
Time: 00:24:28
(UTC+02:00)
Language:

ARIANE 5 R/B - Orbit

View from above orbital plane
View from above orbital plane
View from above satellite
View from above satellite

Ground track
Ground track

The orbit data is extracted from the following two-line orbital elements,

1 28886U 05041C   18113.82718757 -.00000214 +00000-0 +50728-3 0  9994
2 28886 007.8436 247.1946 7184984 325.9230 305.6901 02.24333767102644
Epoch (UTC): 23 April 2018 19:51:09
Eccentricity: 0.7184984
inclination: 7.8436°
perigee height: 560 km
apogee height: 35981 km
right ascension of ascending node: 247.1946°
argument of perigee: 325.9230°
revolutions per day: 2.24333767
mean anomaly at epoch: 305.6901°
orbit number at epoch: 10264

The dashed part of the orbit path shows where the satellite is in the earth's shadow,  

DLR